Location: Unspecified
(43.9500°N, 64.7900°W)
Time: 02:18:36
(UTC-03:00)

Envisat - Visible Passes

Search period start: 16 October 2018 00:00
Search period end: 26 October 2018 00:00
Orbit: 764 x 766 km, 98.2° (Epoch: 15 October)

Date Brightness Start Highest point End Pass type
(mag) Time Alt. Az. Time Alt. Az. Time Alt. Az.
16 Oct 3.6 19:25:59 10° SE 19:30:30 34° ENE 19:35:03 10° N visible
16 Oct 4.7 21:05:02 10° SSW 21:09:31 31° W 21:14:02 10° NNW visible
17 Oct 3.3 20:27:34 10° S 20:32:37 68° WSW 20:37:42 10° NNW visible
18 Oct 3.0 19:50:58 10° SSE 19:55:55 57° ENE 20:00:55 10° N visible
18 Oct 5.5 21:31:50 10° SW 21:35:19 18° W 21:38:47 10° NW visible
19 Oct 3.9 19:15:11 10° ESE 19:19:25 28° ENE 19:23:41 10° N visible
19 Oct 4.3 20:53:32 10° SSW 20:58:16 39° W 21:03:02 10° NNW visible
20 Oct 3.0 20:16:21 10° SSE 20:21:25 85° WSW 20:26:33 10° NNW visible
20 Oct 6.1 22:00:55 10° W 22:01:12 10° W 22:01:29 10° W visible
21 Oct 3.2 19:39:58 10° SE 19:44:47 45° ENE 19:49:38 10° N visible
21 Oct 5.2 21:20:02 10° SW 21:24:01 23° W 21:28:01 10° NW visible
22 Oct 4.1 19:04:27 10° ESE 19:08:20 23° ENE 19:12:14 10° NNE visible
22 Oct 3.8 20:42:08 10° S 20:47:02 49° W 20:51:58 10° NNW visible
23 Oct 2.9 20:05:11 10° SSE 20:10:15 78° ENE 20:15:21 10° N visible
23 Oct 5.8 21:47:30 10° WSW 21:49:52 13° W 21:52:14 10° WNW visible
24 Oct 3.5 19:29:03 10° SE 19:33:40 37° ENE 19:38:18 10° N visible
24 Oct 4.8 21:08:23 10° SSW 21:12:44 28° W 21:17:08 10° NW visible
25 Oct 4.3 18:53:51 10° ESE 18:57:17 19° ENE 19:00:43 10° NNE visible
25 Oct 3.4 20:30:48 10° S 20:35:49 62° W 20:40:53 10° NNW visible
